• In Czech Republic
  • List of Countries
  • For 7 days
  • Water Temperature
  • Satellite Maps
  • Weather Map
  • Weather Widgets
  • user-avatar
    Login

    Hourly Weather Encamp

    Today, 24 September, Sunday

    Time Temperature Precipitation Wind Pressure Humidity
    00:00 +9°C° 0 mm 1 mps 627 mmHg 65%
    01:00 +8°C° 0 mm 1 mps 627 mmHg 62%
    02:00 +8°C° 0 mm 1 mps 626 mmHg 59%
    03:00 +7°C° 0 mm 2 mps 626 mmHg 56%
    04:00 +7°C° 0 mm 2 mps 626 mmHg 54%
    05:00 +7°C° 0 mm 2 mps 626 mmHg 52%
    06:00 +7°C° 0 mm 2 mps 626 mmHg 51%
    07:00 +11°C° 0 mm 1 mps 628 mmHg 45%
    08:00 +14°C° 0 mm 1 mps 629 mmHg 40%
    09:00 +16°C° 0 mm 0 mps 630 mmHg 34%
    10:00 +19°C° 0 mm 1 mps 631 mmHg 32%
    11:00 +20°C° 0 mm 1 mps 631 mmHg 31%
    12:00 +21°C° 0 mm 1 mps 631 mmHg 29%
    13:00 +21°C° 0 mm 1 mps 631 mmHg 30%
    14:00 +21°C° 0 mm 1 mps 630 mmHg 32%
    15:00 +20°C° 0 mm 2 mps 630 mmHg 33%
    16:00 +18°C° 0 mm 1 mps 629 mmHg 42%
    17:00 +15°C° 0 mm 1 mps 628 mmHg 50%
    18:00 +12°C° 0 mm 1 mps 627 mmHg 59%
    19:00 +12°C° 0 mm 1 mps 627 mmHg 61%
    20:00 +11°C° 0 mm 1 mps 627 mmHg 62%
    21:00 +11°C° 0 mm 1 mps 627 mmHg 63%
    22:00 +11°C° 0 mm 1 mps 627 mmHg 63%
    23:00 +10°C° 0 mm 1 mps 627 mmHg 63%

    Tomorrow, 25 September, Monday

    Time Temperature Precipitation Wind Pressure Humidity
    00:00 +10°C° 0 mm 1 mps 627 mmHg 63%
    01:00 +10°C° 0 mm 1 mps 626 mmHg 64%
    02:00 +10°C° 0 mm 1 mps 626 mmHg 65%
    03:00 +10°C° 0 mm 1 mps 626 mmHg 65%
    04:00 +10°C° 0 mm 1 mps 626 mmHg 66%
    05:00 +10°C° 0 mm 1 mps 626 mmHg 66%
    06:00 +10°C° 0 mm 1 mps 626 mmHg 66%
    07:00 +11°C° 0 mm 1 mps 627 mmHg 63%
    08:00 +13°C° 0 mm 1 mps 628 mmHg 59%
    09:00 +15°C° 0 mm 1 mps 629 mmHg 55%
    10:00 +16°C° 0 mm 1 mps 629 mmHg 54%
    11:00 +16°C° 0 mm 2 mps 629 mmHg 52%
    12:00 +17°C° 0 mm 2 mps 630 mmHg 51%
    13:00 +17°C° 0.2 mm 2 mps 629 mmHg 56%
    14:00 +16°C° 0.2 mm 2 mps 629 mmHg 60%
    15:00 +15°C° 0.2 mm 2 mps 628 mmHg 65%
    16:00 +14°C° 0.4 mm 2 mps 628 mmHg 71%
    17:00 +13°C° 0.4 mm 2 mps 628 mmHg 77%
    18:00 +10°C° 0.4 mm 2 mps 627 mmHg 84%
    19:00 +10°C° 0.2 mm 2 mps 627 mmHg 86%
    20:00 +9°C° 0.2 mm 2 mps 628 mmHg 88%
    21:00 +9°C° 0.2 mm 2 mps 628 mmHg 91%
    22:00 +9°C° 0.1 mm 2 mps 628 mmHg 91%
    23:00 +9°C° 0.1 mm 1 mps 627 mmHg 91%

    Day after tomorrow, 26 September, Tuesday

    Time Temperature Precipitation Wind Pressure Humidity
    00:00 +9°C° 0.1 mm 1 mps 627 mmHg 92%
    01:00 +9°C° 0 mm 1 mps 627 mmHg 92%
    02:00 +9°C° 0 mm 1 mps 627 mmHg 93%
    03:00 +8°C° 0 mm 1 mps 627 mmHg 94%
    04:00 +8°C° 0 mm 1 mps 627 mmHg 94%
    05:00 +8°C° 0 mm 1 mps 627 mmHg 94%
    06:00 +7°C° 0 mm 1 mps 627 mmHg 94%
    07:00 +9°C° 0 mm 1 mps 627 mmHg 88%
    08:00 +11°C° 0 mm 1 mps 628 mmHg 81%
    09:00 +12°C° 0 mm 1 mps 629 mmHg 75%
    10:00 +13°C° 0 mm 1 mps 629 mmHg 69%
    11:00 +14°C° 0 mm 1 mps 629 mmHg 62%
    12:00 +15°C° 0 mm 1 mps 630 mmHg 56%
    13:00 +15°C° 0.1 mm 1 mps 629 mmHg 57%
    14:00 +14°C° 0.1 mm 1 mps 629 mmHg 58%
    15:00 +14°C° 0.1 mm 1 mps 629 mmHg 59%
    16:00 +13°C° 0 mm 1 mps 628 mmHg 65%
    17:00 +11°C° 0 mm 1 mps 628 mmHg 71%
    18:00 +9°C° 0 mm 0 mps 627 mmHg 77%
    19:00 +9°C° 0 mm 1 mps 627 mmHg 80%
    20:00 +9°C° 0 mm 1 mps 627 mmHg 83%
    21:00 +8°C° 0 mm 1 mps 627 mmHg 86%
    22:00 +8°C° 0 mm 1 mps 627 mmHg 87%
    23:00 +8°C° 0 mm 1 mps 627 mmHg 88%

    27 September, Wednesday

    Time Temperature Precipitation Wind Pressure Humidity
    00:00 +7°C° 0 mm 1 mps 627 mmHg 89%
    01:00 +8°C° 0 mm 1 mps 627 mmHg 89%
    02:00 +8°C° 0 mm 1 mps 627 mmHg 89%
    03:00 +8°C° 0 mm 1 mps 627 mmHg 90%
    04:00 +7°C° 0 mm 1 mps 627 mmHg 90%
    05:00 +7°C° 0 mm 1 mps 627 mmHg 90%
    06:00 +7°C° 0 mm 1 mps 627 mmHg 90%
    07:00 +9°C° 0 mm 1 mps 628 mmHg 80%
    08:00 +12°C° 0 mm 1 mps 629 mmHg 70%
    09:00 +14°C° 0 mm 1 mps 630 mmHg 60%
    10:00 +15°C° 0 mm 1 mps 631 mmHg 55%
    11:00 +17°C° 0 mm 2 mps 631 mmHg 50%
    12:00 +18°C° 0 mm 2 mps 632 mmHg 45%
    13:00 +18°C° 0 mm 2 mps 631 mmHg 47%
    14:00 +17°C° 0 mm 2 mps 631 mmHg 48%
    15:00 +17°C° 0 mm 2 mps 631 mmHg 49%
    16:00 +15°C° 0 mm 2 mps 630 mmHg 59%
    17:00 +13°C° 0 mm 1 mps 630 mmHg 68%
    18:00 +11°C° 0 mm 1 mps 629 mmHg 77%
    19:00 +10°C° 0 mm 1 mps 629 mmHg 80%
    20:00 +10°C° 0 mm 1 mps 629 mmHg 82%
    21:00 +9°C° 0 mm 1 mps 629 mmHg 85%
    22:00 +9°C° 0 mm 1 mps 629 mmHg 84%
    23:00 +9°C° 0 mm 1 mps 629 mmHg 82%

    28 September, Thursday

    Time Temperature Precipitation Wind Pressure Humidity
    00:00 +9°C° 0 mm 1 mps 629 mmHg 81%
    01:00 +9°C° 0 mm 1 mps 629 mmHg 78%
    02:00 +9°C° 0 mm 1 mps 629 mmHg 76%
    03:00 +9°C° 0 mm 1 mps 629 mmHg 73%
    04:00 +9°C° 0 mm 1 mps 629 mmHg 70%
    05:00 +9°C° 0 mm 1 mps 629 mmHg 68%
    06:00 +8°C° 0 mm 1 mps 629 mmHg 66%
    07:00 +11°C° 0 mm 1 mps 631 mmHg 59%
    08:00 +14°C° 0 mm 1 mps 632 mmHg 52%
    09:00 +15°C° 0 mm 0 mps 633 mmHg 46%
    10:00 +19°C° 0 mm 1 mps 633 mmHg 44%
    11:00 +20°C° 0 mm 1 mps 634 mmHg 41%
    12:00 +21°C° 0 mm 1 mps 634 mmHg 39%
    13:00 +20°C° 0 mm 1 mps 634 mmHg 41%
    14:00 +19°C° 0 mm 2 mps 633 mmHg 42%
    15:00 +19°C° 0 mm 2 mps 633 mmHg 44%
    16:00 +18°C° 0 mm 1 mps 632 mmHg 54%
    17:00 +15°C° 0 mm 1 mps 631 mmHg 64%
    18:00 +12°C° 0 mm 1 mps 630 mmHg 74%
    19:00 +12°C° 0 mm 1 mps 630 mmHg 77%
    20:00 +11°C° 0 mm 1 mps 630 mmHg 80%
    21:00 +10°C° 0 mm 1 mps 630 mmHg 83%
    22:00 +10°C° 0 mm 1 mps 630 mmHg 83%
    23:00 +10°C° 0 mm 1 mps 630 mmHg 83%

    29 September, Friday

    Time Temperature Precipitation Wind Pressure Humidity
    00:00 +10°C° 0 mm 1 mps 630 mmHg 84%
    01:00 +10°C° 0 mm 1 mps 629 mmHg 83%
    02:00 +10°C° 0 mm 1 mps 629 mmHg 83%
    03:00 +9°C° 0 mm 1 mps 629 mmHg 82%
    04:00 +9°C° 0 mm 1 mps 629 mmHg 82%
    05:00 +9°C° 0 mm 1 mps 629 mmHg 82%
    06:00 +9°C° 0 mm 1 mps 629 mmHg 81%
    07:00 +12°C° 0 mm 1 mps 630 mmHg 72%
    08:00 +14°C° 0 mm 1 mps 631 mmHg 63%
    09:00 +18°C° 0 mm 1 mps 632 mmHg 54%
    10:00 +19°C° 0 mm 1 mps 632 mmHg 51%
    11:00 +19°C° 0 mm 2 mps 632 mmHg 48%
    12:00 +20°C° 0 mm 2 mps 633 mmHg 45%
    13:00 +19°C° 0.3 mm 2 mps 632 mmHg 48%
    14:00 +19°C° 0.3 mm 2 mps 631 mmHg 51%
    15:00 +19°C° 0.3 mm 2 mps 631 mmHg 54%
    16:00 +17°C° 0.2 mm 2 mps 630 mmHg 62%
    17:00 +15°C° 0.2 mm 1 mps 630 mmHg 70%
    18:00 +13°C° 0.2 mm 1 mps 629 mmHg 77%
    19:00 +12°C° 0.2 mm 1 mps 629 mmHg 79%
    20:00 +12°C° 0.2 mm 1 mps 629 mmHg 80%
    21:00 +12°C° 0.2 mm 1 mps 629 mmHg 81%
    22:00 +11°C° 0 mm 1 mps 629 mmHg 81%
    23:00 +11°C° 0 mm 1 mps 629 mmHg 80%
    Show more